星链-6084 (STARLINK-6084 )

导读 | 星芒AI

STARLINK-6084 是 SpaceX Starlink 项目中的一颗低轨通信卫星,属于该公司构建的全球宽带互联网网络的一部分。该卫星采用可重复使用设计,搭载先进相控阵天线,旨在为全球用户提供高速、低延迟的互联网服务。它运行在约 550 公里的轨道高度,与其他 Starlink 卫星协同工作,提升网络覆盖与性能。该项目致力于改善偏远地区网络接入,同时推动航天技术与商业应用的结合。

基本信息
目录编号:
56111
目录名称:
STARLINK-6084
国际标识:
2023-046U
轨道中心:
EARTH
卫星名称:
星链-6084
卫星全名:
星链-6084 (STARLINK-6084 )
卫星状态:
在轨 (已飞行951 天)
发射日期:
2023-03-29 UTC
国别 :
美国 (US)
星等 :
--
轨道信息
数据来源 国际轨道数据
星历时间: 2025-11-03T21:33:36+0800
11小时前
查看轨道信息
半长轴: 6937.215km
偏心率: 0.0001403
轨道倾角: 43.003°
近地点辐角 267.124°
升交点赤经 123.920°
平近点角 92.944°
近地点: 558.106km
远地点: 560.054km
周期: 95.838分钟
每日圈数: 15.025365
详细信息
固有亮度:
5
最大亮度:
2.5
卫星平台:
Starlink v1.5
覆盖范围:
全球
运营商:
太空探索技术公司
运营商所在国:
美国
制造商(研发单位):
太空探索技术公司
制造商所在国:
美国
使用方式:
暂无
卫星简介
星链(Starlink)计划是由太空探索技术公司(SpaceX)提出的一个巨型低轨卫星互联网星座项目,计划在2019年至2024年间在太空搭建由约1.2万颗卫星组成的“星链”网络,其中1584颗将部署在地球上空550千米处的近地轨道,并从2020年开始工作。该卫星仍在工作。
2D轨道图
3D轨道图
轨道高度分析图
轨道倾角分析图
轨道综合分析图
查看轨道综合分析图